Location: Castillon
(43.0896°N, 0.2156°E)
Time: 15:17:57
(UTC+00:00)

Cosmos 1378 Rocket - Pass Details

Date: 16 June 2021
Orbit: 601 x 627 km, 82.5° (Epoch: 31 July)

Event Time Altitude Azimuth Distance (km) Brightness Sun altitude
Rises 20:32:49 0° 191° (S) 2,848 6.6 -8.3°
Reaches altitude 10° 20:35:00 10° 193° (SSW) 1,953 5.8 -8.5°
Maximum altitude 20:39:19 75° 278° (W) 636 3.8 -9.1°
Drops below altitude 10° 20:43:43 10° 5° (N) 1,984 6.8 -9.7°
Sets 20:45:58 0° 7° (N) 2,899 7.6 -10.0°
